Baton Rouge, LA

8:15 PM CST on February 27, 2017 (GMT -0600)
Baton Rouge Metro-Ryan

Weather History for KBTR - March, 2013

Change the Weather History Date:

Saturday, March 16, 2013

  Actual Average Record
Temperature  
Mean Temperature 64 °F 62 °F  
Max Temperature 76 °F 73 °F 88 °F (1921)
Min Temperature 51 °F 50 °F 30 °F (1909)
Degree Days  
Heating Degree Days 1 5  
Month to date heating degree days 178 106  
Since 1 July heating degree days 1350 1441  
Cooling Degree Days 0 2  
Month to date cooling degree days 2 25  
Year to date cooling degree days 27 56  
Growing Degree Days 14 (Base 50)    
Moisture  
Dew Point 52 °F    
Average Humidity 72    
Maximum Humidity 100    
Minimum Humidity 43    
Precipitation  
Precipitation 0.00 in 0.13 in 2.50 in (1894)
Month to date precipitation 2.34 2.29  
Year to date precipitation 24.38 13.05  
Snow  
Snow 0.00 in - - ()
Month to date snowfall 0.0  
Since 1 July snowfall 0.0  
Snow Depth 0.00 in    
Sea Level Pressure  
Sea Level Pressure 30.03 in    
Wind  
Wind Speed 9 mph (South)    
Max Wind Speed 20 mph    
Max Gust Speed 25 mph    
Visibility 10 miles    
Events      
T = Trace of Precipitation, MM = Missing Value Source: NWS Daily Summary

Daily Weather History Graph

Daily Weather History Graph

Search for Another Location

Airport or City:

Trip Planner

Search our weather history database for the weather conditions in past years. The results will help you decide how hot, cold, wet, or windy it might be!

Date:

Astronomy

Mar. 16, 2013 Rise Set
Actual Time 7:12 AM CDT 7:13 PM CDT
Civil Twilight 6:48 AM CDT 7:37 PM CDT
Nautical Twilight 6:21 AM CDT 8:05 PM CDT
Astronomical Twilight 5:53 AM CDT 8:33 PM CDT
Moon 10:03 AM CDT (3/16) No Moon Set
Length of Visible Light 12h 48m
Length of Day
12h 00m
Waxing Crescent, 23% of the Moon is Illuminated
Mar 16
Waxing Crescent
Mar 19
First Quarter
Mar 27
Full
Apr 2
Last Quarter
Apr 10
New

Hourly Weather History & Observations

Time (CDT) Temp. Dew Point Humidity Pressure Visibility Wind Dir Wind Speed Gust Speed Precip Events Conditions
12:53 AM 57.0 °F 51.1 °F 81% 30.12 in 10.0 mi South 9.2 mph - N/A   Clear
1:53 AM 55.0 °F 50.0 °F 83% 30.09 in 10.0 mi South 6.9 mph - N/A   Clear
2:53 AM 54.0 °F 50.0 °F 86% 30.07 in 10.0 mi South 5.8 mph - N/A   Clear
3:53 AM 55.0 °F 51.1 °F 86% 30.06 in 10.0 mi South 4.6 mph - N/A   Clear
4:53 AM 52.0 °F 50.0 °F 93% 30.05 in 10.0 mi Calm Calm - N/A   Clear
5:53 AM 53.1 °F 51.1 °F 93% 30.06 in 10.0 mi South 3.5 mph - N/A   Clear
6:53 AM 52.0 °F 51.1 °F 97% 30.06 in 8.0 mi SSE 4.6 mph - N/A   Clear
7:53 AM 52.0 °F 51.1 °F 97% 30.08 in 8.0 mi ESE 3.5 mph - N/A   Clear
8:53 AM 61.0 °F 55.9 °F 83% 30.08 in 10.0 mi South 8.1 mph - N/A   Partly Cloudy
9:53 AM 66.9 °F 55.0 °F 66% 30.08 in 10.0 mi SW 18.4 mph 24.2 mph N/A   Clear
10:53 AM 69.1 °F 55.0 °F 61% 30.08 in 10.0 mi SW 12.7 mph - N/A   Mostly Cloudy
11:00 AM 68.0 °F 53.6 °F 60% 30.08 in 10.0 mi SW 17.3 mph 23.0 mph N/A   Mostly Cloudy
11:53 AM 71.1 °F 54.0 °F 55% 30.08 in 10.0 mi West 13.8 mph 19.6 mph N/A   Mostly Cloudy
12:53 PM 71.1 °F 52.0 °F 51% 30.06 in 10.0 mi SSW 12.7 mph - N/A   Mostly Cloudy
1:53 PM 73.0 °F 52.0 °F 48% 30.03 in 10.0 mi SSW 10.4 mph 20.7 mph N/A   Scattered Clouds
2:53 PM 75.0 °F 52.0 °F 44% 29.99 in 10.0 mi South 8.1 mph - N/A   Clear
3:53 PM 75.9 °F 51.1 °F 42% 29.96 in 10.0 mi South 13.8 mph 17.3 mph N/A   Scattered Clouds
4:53 PM 75.0 °F 51.1 °F 43% 29.95 in 10.0 mi South 13.8 mph - N/A   Partly Cloudy
5:53 PM 73.0 °F 51.1 °F 46% 29.94 in 10.0 mi South 13.8 mph - N/A   Clear
6:53 PM 70.0 °F 51.1 °F 51% 29.95 in 10.0 mi South 11.5 mph - N/A   Partly Cloudy
7:53 PM 66.9 °F 51.1 °F 57% 29.96 in 10.0 mi SSW 13.8 mph - N/A   Clear
8:53 PM 64.9 °F 53.1 °F 65% 29.97 in 10.0 mi South 8.1 mph - N/A   Clear
9:53 PM 63.0 °F 52.0 °F 67% 29.99 in 10.0 mi South 6.9 mph - N/A   Clear
10:53 PM 61.0 °F 53.1 °F 75% 29.99 in 10.0 mi SSE 8.1 mph - N/A   Clear
11:53 PM 61.0 °F 54.0 °F 78% 29.97 in 10.0 mi SSE 5.8 mph - N/A   Clear